Location: Newark
(39.8867°N, 94.3600°W)
Time: 06:07:07
(UTC+00:00)

N. Korean satellite - Pass Details

Date: 27 January 2020
Orbit: 456 x 505 km, 97.2° (Epoch: 27 February)

Event Time Altitude Azimuth Distance (km) Brightness Sun altitude
Rises 11:10:50 0° 30° (NNE) 2,551 10.6 -26.8°
Reaches altitude 10° 11:13:28 10° 52° (NE) 1,676 9.9 -26.3°
Maximum altitude 11:15:52 17° 94° (E) 1,313 9.6 -25.8°
Drops below altitude 10° 11:18:17 10° 135° (SE) 1,684 9.9 -25.3°
Sets 11:20:56 0° 157° (SSE) 2,570 10.6 -24.8°
